GW0416 Weather Reports


time (UTC)temp
F
wind
direction
speed
knots
gust
knots
rain 1hr
in
rain 24hr
in
rain mn
in
humidity
%
barometer
mb
20260901080036 56 155 3.5 4.3 0.00 0.00 0.00 60 1014.4
20260901074535 57 146 2.6 4.3 0.00 0.00 0.00 58 1014.4
20260901073037 57 126 2.6 5.2 0.00 0.00 0.00 59 1014.5
20260901071536 56 109 1.7 3.5 0.00 0.00 0.00 60 1014.5
20260901070036 58 128 5.2 7.0 0.00 0.00 0.00 56 1014.4
20260901064534 58 130 5.2 7.0 0.00 0.00 0.00 56 1014.5
20260901063038 57 86 1.7 6.1 0.00 0.00 0.00 57 1014.5
20260901061536 57 142 3.5 6.1 0.00 0.00 0.00 56 1014.7
20260901060035 58 146 4.3 7.8 0.00 0.00 0.00 54 1014.5
20260901054538 58 159 5.2 7.8 0.00 0.00 0.00 54 1014.8
20260901053052 58 132 2.6 4.3 0.00 0.00 0.00 53 1014.9
20260901051548 60 148 3.5 5.2 0.00 0.00 0.00 51 1014.9
20260901050036 60 136 3.5 5.2 0.00 0.00 0.00 51 1015.0
20260901044551 60 103 2.6 3.5 0.00 0.00 0.00 50 1015.0
20260901043036 61 118 4.3 6.1 0.00 0.00 0.00 50 1014.9
20260901041535 60 118 3.5 5.2 0.00 0.00 0.00 51 1015.0
20260901040058 62 120 4.3 7.0 0.00 0.00 0.00 48 1014.9
20260901034537 62 132 6.1 7.0 0.00 0.00 0.00 48 1014.8
20260901033037 63 126 6.1 7.0 0.00 0.00 0.00 46 1014.6
20260901031535 64 113 5.2 6.1 0.00 0.00 0.00 45 1014.5
20260901030036 65 118 3.5 6.1 0.00 0.00 0.00 43 1014.4
20260901024535 66 95 2.6 4.3 0.00 0.00 0.00 43 1014.5
20260901023051 69 141 2.6 4.3 0.00 0.00 0.00 38 1014.4
20260901021537 70 150 2.6 5.2 0.00 0.00 0.00 37 1014.4
20260901020043 70 151 3.5 5.2 0.00 0.00 0.00 38 1014.5
20260901014550 71 157 3.5 4.3 0.00 0.00 0.00 37 1014.4
20260901013036 72 183 3.5 7.0 0.00 0.00 0.00 36 1014.4
20260901011539 72 205 5.2 7.8 0.00 0.00 0.00 36 1014.4
20260901010036 72 186 6.1 8.7 0.00 0.00 0.00 35 1014.5
20260901004543 73 200 7.0 12.2 0.00 0.00 0.00 35 1014.6
20260901003037 73 197 7.0 11.3 0.00 0.00 0.00 36 1014.7
20260901001536 73 202 6.1 14.8 0.00 0.00 0.00 36 1014.7
20260901000039 73 165 6.1 12.2 0.00 0.00 0.00 36 1014.6
20260831234537 73 209 6.1 13.0 0.00 0.00 0.00 36 1014.8
20260831233035 74 234 5.2 10.4 0.00 0.00 0.00 37 1014.8
20260831231538 73 69 2.6 7.8 0.00 0.00 0.00 37 1014.8
20260831230041 72 144 9.6 15.6 0.00 0.00 0.00 38 1014.9
20260831224538 72 215 7.8 13.0 0.00 0.00 0.00 38 1014.9
20260831223036 72 235 8.7 12.2 0.00 0.00 0.00 38 1015.0
20260831221536 73 212 2.6 8.7 0.00 0.00 0.00 38 1015.2
20260831220038 73 277 5.2 11.3 0.00 0.00 0.00 39 1015.1
20260831214539 72 298 7.8 13.0 0.00 0.00 0.00 39 1015.2
20260831213034 71 233 8.7 13.0 0.00 0.00 0.00 40 1015.4
20260831211536 71 304 8.7 14.8 0.00 0.00 0.00 39 1015.4
20260831210037 71 253 7.8 16.5 0.00 0.00 0.00 40 1015.4
20260831204549 71 323 8.7 15.6 0.00 0.00 0.00 40 1015.5
20260831203037 71 205 2.6 10.4 0.00 0.00 0.00 41 1015.7
20260831201536 70 272 9.6 13.9 0.00 0.00 0.00 41 1015.8
20260831200044 69 298 10.4 18.2 0.00 0.00 0.00 42 1015.7
20260831194540 69 276 9.6 13.9 0.00 0.00 0.00 42 1015.9
20260831193040 68 248 9.6 15.6 0.00 0.00 0.00 45 1016.0
20260831191537 68 267 7.8 10.4 0.00 0.00 0.00 45 1016.3
20260831190048 68 290 6.1 14.8 0.00 0.00 0.00 44 1016.5
20260831184536 68 220 7.8 16.5 0.00 0.00 0.00 45 1016.6
20260831183038 67 344 7.8 13.0 0.00 0.00 0.00 46 1016.5
20260831181535 67 305 9.6 19.1 0.00 0.00 0.00 46 1016.5
20260831180044 67 285 11.3 15.6 0.00 0.00 0.00 45 1016.6
20260831174543 67 282 7.0 14.8 0.00 0.00 0.00 48 1016.6
20260831173039 66 291 8.7 13.9 0.00 0.00 0.00 49 1016.7
20260831171537 66 288 7.8 16.5 0.00 0.00 0.00 48 1016.5
20260831170037 65 315 7.8 17.4 0.00 0.00 0.00 51 1016.6
20260831164553 65 5 10.4 17.4 0.00 0.00 0.00 52 1016.6
20260831163041 64 321 9.6 19.1 0.00 0.00 0.00 54 1016.5
20260831161535 64 292 8.7 17.4 0.00 0.00 0.00 54 1016.4
20260831160043 63 306 9.6 18.2 0.00 0.00 0.00 54 1016.3
20260831154604 62 284 9.6 16.5 0.00 0.00 0.00 54 1016.3
20260831153036 61 294 12.2 17.4 0.00 0.00 0.00 55 1016.4
20260831151534 59 296 13.9 19.1 0.00 0.00 0.00 57 1016.2
20260831150043 58 295 13.9 20.0 0.00 0.00 0.00 58 1016.1
20260831144538 57 300 15.6 21.7 0.00 0.00 0.00 59 1015.8
20260831143038 56 281 13.0 21.7 0.00 0.00 0.00 62 1015.6
20260831141535 54 290 12.2 17.4 0.00 0.00 0.00 65 1015.5
20260831140038 53 276 9.6 15.6 0.00 0.00 0.00 67 1015.5
20260831134534 51 290 9.6 14.8 0.00 0.00 0.00 71 1015.2
20260831133035 49 270 8.7 13.9 0.00 0.00 0.00 73 1015.2
20260831131535 48 279 10.4 13.9 0.00 0.00 0.00 75 1014.9
20260831130107 46 284 7.0 9.6 0.00 0.00 0.00 78 1014.9
20260831124535 47 295 8.7 13.0 0.00 0.00 0.00 76 1014.7
20260831123033 47 290 7.8 11.3 0.00 0.00 0.00 76 1014.5
20260831121536 48 294 7.8 13.0 0.00 0.00 0.00 74 1014.5
20260831120040 49 276 9.6 14.8 0.00 0.00 0.00 72 1014.2
20260831114536 49 288 11.3 15.6 0.00 0.00 0.00 71 1014.1
20260831113038 49 266 9.6 14.8 0.00 0.00 0.00 71 1014.3
20260831111546 49 271 9.6 15.6 0.00 0.00 0.00 71 1014.2
20260831110040 50 254 11.3 16.5 0.00 0.00 0.00 71 1014.1
20260831104552 49 269 10.4 17.4 0.00 0.00 0.00 72 1014.1
20260831103039 49 273 10.4 14.8 0.00 0.00 0.00 72 1013.8
20260831101537 49 275 10.4 17.4 0.00 0.00 0.00 73 1013.6
20260831100038 49 283 9.6 16.5 0.00 0.00 0.00 73 1013.6
20260831094534 48 265 8.7 12.2 0.00 0.00 0.00 75 1013.6
20260831093046 48 281 4.3 10.4 0.00 0.00 0.00 76 1013.8
20260831091534 48 261 7.0 14.8 0.00 0.00 0.00 75 1013.8
20260831090041 48 271 10.4 13.9 0.00 0.00 0.00 74 1013.4
20260831084536 49 270 10.4 15.6 0.00 0.01 0.00 73 1013.3
20260831083038 49 246 8.7 15.6 0.00 0.01 0.00 74 1013.1
20260831081536 49 237 8.7 14.8 0.00 0.01 0.00 74 1012.9